Location: Adavinekkalam
(16.6301°N, 80.7229°E)
Time: 20:35:53
(UTC+00:00)

Cosmos 1992 Rocket - Pass Details

Date: 15 May 2026
Orbit: 755 x 760 km, 74.0° (Epoch: 8 June)

Event Time Altitude Azimuth Distance (km) Brightness Sun altitude
Rises 14:33:57 0° 197° (SSW) 3,205 7.1 -21.2°
Reaches altitude 10° 14:36:20 10° 200° (SSW) 2,281 6.4 -21.7°
Maximum altitude 14:41:29 71° 284° (WNW) 799 4.2 -22.8°
Drops below altitude 10° 14:46:39 10° 8° (N) 2,283 6.7 -23.8°
Sets 14:49:01 0° 10° (N) 3,209 7.5 -24.3°
